Vertical_Velocity
-2 -1 -0 -1 -1 -2 -2 -2 -3 -1 -1 -0 -1 -0 -1 -1 -1 -0 -0 -0 -0 -1 0 0 0 -1 -2 -1 -3 -2 -1 0 -1 -2 -2 -1 -2 -1 -2 -1 -1 -4 -4 -1 -2 -3 -7
-0 -2 -0 -1 -1 -1 -2 -2 -1 -2 -1 -1 -0 -2 -2 -1 -1 -0 -1 -1 -1 -0 0 -0 -1 -0 -2 -2 -1 -1 -1 -2 -1 -1 -1 -0 -1 -1 -0 -2 -3 -1 -4 -1 -1 -3 -4
-1 -1 -1 -3 -0 -1 -2 -2 -3 -3 -2 -2 -1 -1 -0 0 -1 -1 -1 -0 -1 -0 -1 -1 -1 -2 -0 -2 -1 -1 -1 -1 -1 -2 -1 -1 -1 -1 0 -0 -1 -3 2 -4 -2 -3 -4
-2 -2 -1 -0 -2 -2 -3 -1 -1 -1 -1 -2 -2 -1 -1 -1 -0 -0 -0 -1 -0 -0 -1 -0 -1 -2 1 -0 -0 0 1 -1 -1 -1 -0 -1 -1 -1 -5 -1 -1 -2 -0 0 -8 -1 -1
-2 -1 -1 -1 -1 -1 -2 -1 -2 -1 -2 -2 -1 -1 -1 -1 -1 -2 -1 0 -1 -1 -1 -2 -2 -4 1 1 -2 1 0 -0 -1 -1 -1 -1 0 -2 0 -1 -3 5 2 -2 -3 4 -3
-2 -2 -3 -2 -1 -1 -1 -0 0 0 0 0 -0 -1 -2 -2 -2 -2 -2 -1 -0 0 -2 -2 -1 -1 0 0 -1 -1 0 -0 -0 -0 2 1 -0 -2 1 -1 0 2 -3 4 -7 -3 -1
-2 -1 -1 -1 -1 -0 1 0 -1 -2 -3 -3 -3 -3 -3 -1 -2 -2 -2 -2 -3 2 3 -7 -10 9 -9 1 2 5 0 1 1 1 -1 5 2 -0 -1 -3 0 1 -1 -2 3 -1 -3
-1 -1 -1 -0 2 -0 -2 -1 -0 -1 -1 -3 -3 -1 -2 -1 -2 -3 -4 -4 -3 -10 18 -13 -0 -3 -8 1 -2 -1 -2 -1 -2 1 1 0 2 -2 1 -0 -1 1 1 3 4 3 -0
-2 -1 -1 -2 -1 -1 -1 -2 -2 -2 -1 -0 -1 -2 -3 -3 -4 -1 -2 -2 -4 -8 -9 25 3 2 0 -2 1 1 -0 -3 2 2 -3 -2 -4 7 -1 -0 -4 1 1 3 -1 1 -0
-1 -2 -2 -0 -0 -1 -2 -1 -0 1 -1 -2 -1 -1 -1 -1 -1 -3 -1 -2 -3 -7 -12 2 -3 -6 -3 1 0 1 -3 -2 0 1 -2 -2 3 -2 0 4 -8 -0 2 2 1 -1 -0
-2 -1 -1 -1 -1 -1 -1 -2 -3 -2 1 -0 0 -1 -2 -2 -1 -1 -3 -3 -1 -3 -22 -16 -2 -2 3 -0 -1 4 -0 -1 2 -2 5 16 -2 3 1 1 -2 -1 0 0 1 1 -0
-1 -0 -1 -0 -2 -3 -2 -1 1 -2 0 -2 -0 -1 -3 -2 -2 -1 -2 -4 -1 -0 -6 -9 -3 3 -1 1 3 1 3 0 1 -1 -2 8 -7 5 -1 2 2 -2 -0 -1 1 1 1
-0 -1 -2 -1 -3 -3 -4 -4 -2 -2 -5 -1 -1 1 -1 0 -1 -2 -3 -1 -8 8 -12 -11 -1 -1 2 4 1 4 5 4 2 -6 9 -0 7 5 -0 1 1 -1 1 -2 -4 3 3
-1 -1 -1 -1 -1 -1 -3 -5 -4 -2 -4 1 -3 -1 1 -1 -3 -4 -2 -3 4 -1 3 0 3 3 -4 7 3 3 5 7 4 1 -4 -1 5 6 5 2 -1 -0 2 1 -6 -1 2
-3 -1 -2 -1 -1 -3 -2 -1 -4 -4 -4 -5 -2 -1 -1 -3 -3 -2 -5 -2 2 -4 -4 -4 9 -4 -1 5 12 2 -1 2 1 2 1 -3 4 7 5 2 -0 -1 -1 3 -3 -0 -1
-2 -1 -1 -1 -4 -2 -2 -2 -2 -4 -2 1 -2 -1 -1 -2 1 -2 2 0 -9 -3 -2 -6 -6 7 4 -1 6 -2 11 4 -0 1 -0 -2 -12 4 2 -0 5 3 3 1 -1 -2 -3
-2 -4 -3 -2 -5 -2 -1 0 -2 -5 -5 -1 -4 2 2 -1 -1 -2 2 -2 -4 -3 2 3 1 -2 2 -4 6 6 -4 1 3 1 0 1 -5 13 5 7 -0 2 3 2 1 -1 -5
-0 -1 -3 -2 -2 -4 -4 -3 2 5 -2 -4 -5 -5 -3 -6 1 -10 -7 -0 1 -4 -1 -5 1 -2 1 -0 6 0 1 5 3 0 -0 -1 -6 -2 3 5 2 2 3 2 -3 6 -3
-1 -3 -1 -3 -4 -2 -3 -3 -5 -5 0 3 3 3 -3 2 -6 -3 -2 -0 -4 -7 -3 1 -4 4 1 2 -5 3 4 10 4 1 -3 -1 -4 -2 4 -1 1 2 3 2 -2 -2 7
-1 -1 -2 -2 -1 -3 -2 -7 -4 -3 -3 -4 -1 -5 -2 -4 -3 -8 -7 -6 -7 -5 -2 -3 -0 -2 2 1 -1 -1 3 1 3 1 2 -4 5 -1 0 6 -8 -1 -0 2 -2 -9 17
-0 -2 2 2 -3 1 -1 -2 -6 -3 0 -3 -3 -5 -6 -11 -7 0 -1 -3 -2 -1 4 -4 2 1 -2 4 2 -3 0 -1 6 -5 -4 -8 1 -3 5 3 3 3 1 6 -17 12 -21
-4 -0 -2 -3 -1 -0 0 6 -8 -9 -2 0 -5 -1 -5 -3 -7 -2 -0 -1 -2 -1 5 -0 1 -1 -3 -3 -2 2 -4 -2 11 10 -2 -3 -3 -5 1 5 -6 -5 1 3 3 7 -19
-0 -0 -2 1 -1 -3 -4 -4 4 4 -1 4 -4 -6 -5 1 -1 4 3 0 -4 4 3 1 1 2 2 -1 -4 -1 0 10 -3 1 3 1 1 -2 3 -7 1 1 -5 -4 6 10 2
-2 -2 -4 -4 -6 -3 -3 -1 -3 -3 3 2 3 0 1 -2 0 -3 -7 -7 -1 0 3 2 -7 -5 -4 -1 1 2 -1 -1 -0 0 5 5 -1 -5 -6 5 -13 2 1 -1 -5 2 5
-2 -3 -1 -4 -2 -2 -4 -5 -3 -4 -4 -0 3 0 1 3 3 10 -2 -6 -0 0 1 -4 4 -6 -4 0 -4 -6 2 -8 -4 3 -0 4 -1 -6 -8 3 -23 28 6 -0 -2 -1 8
-1 1 -1 -3 -3 -2 -3 -4 -6 -6 -7 -3 -4 -1 -1 -2 0 1 8 1 -4 4 1 -5 -5 -0 1 -5 -1 -13 -5 -1 -1 7 9 6 3 -5 1 -11 -25 20 13 -2 -2 -6 -17
-2 -3 -2 -1 -3 -2 -2 -2 -2 -2 -4 -0 -4 -4 -3 -10 7 2 5 -4 -2 2 -6 -6 -6 12 -5 -7 -0 0 3 3 2 -2 6 4 -6 -8 -13 -2 -25 0 18 -1 -0 11 -17
-2 -3 -4 -4 -2 -2 -1 -2 -3 1 -2 4 4 -1 -1 -7 4 9 10 -1 1 -7 -8 2 -4 -4 -1 3 3 7 1 16 -7 4 15 -12 -6 1 -2 -2 -30 5 4 -3 4 6 -3
-2 -1 -3 -1 -1 1 -1 -3 -0 1 -2 -8 -3 -9 -11 -3 -7 9 -10 4 -6 -9 -7 3 -6 9 -5 -6 -3 -7 -4 4 6 -19 13 -9 -5 -15 -1 3 -5 6 -7 4 10 -16 7
Height
5838 5837 5835 5833 5831 5829 5826 5823 5821 5818 5816 5813 5811 5808 5806 5803 5800 5797 5794 5791 5788 5785 5781 5778 5775 5772 5769 5766 5763 5760 5757 5755 5752 5749 5746 5743 5740 5738 5734 5731 5728 5724 5721 5717 5713 5708 5703
5836 5834 5833 5831 5829 5826 5824 5821 5818 5815 5813 5811 5808 5805 5801 5798 5795 5792 5789 5786 5783 5780 5776 5773 5770 5766 5763 5761 5758 5755 5752 5749 5746 5743 5740 5737 5734 5731 5728 5725 5722 5718 5715 5711 5707 5702 5696
5833 5832 5830 5828 5825 5823 5820 5817 5815 5812 5810 5807 5804 5800 5797 5793 5790 5787 5784 5780 5776 5773 5770 5767 5763 5760 5758 5754 5751 5749 5746 5742 5740 5737 5735 5731 5728 5725 5722 5719 5716 5712 5709 5703 5699 5695 5690
5830 5829 5827 5824 5822 5820 5817 5815 5811 5808 5805 5802 5798 5794 5791 5788 5784 5781 5777 5774 5770 5766 5763 5760 5757 5754 5751 5747 5744 5742 5739 5736 5733 5731 5728 5725 5721 5719 5715 5713 5710 5706 5702 5698 5692 5688 5684
5827 5825 5823 5821 5819 5816 5813 5810 5806 5803 5800 5796 5792 5789 5786 5783 5779 5775 5771 5768 5764 5760 5757 5754 5751 5747 5744 5741 5738 5734 5731 5729 5726 5723 5721 5718 5715 5712 5709 5706 5703 5700 5696 5691 5686 5683 5677
5824 5822 5820 5817 5814 5812 5809 5806 5802 5799 5797 5793 5789 5785 5781 5779 5774 5770 5765 5762 5759 5755 5753 5749 5745 5742 5737 5733 5730 5727 5724 5721 5718 5715 5713 5710 5707 5705 5702 5699 5696 5692 5689 5686 5680 5677 5671
5821 5819 5816 5813 5811 5808 5806 5803 5800 5797 5794 5790 5786 5782 5777 5773 5769 5764 5761 5756 5754 5749 5747 5744 5739 5735 5729 5727 5723 5720 5715 5713 5710 5707 5705 5703 5700 5697 5694 5690 5688 5685 5682 5679 5676 5671 5667
5817 5815 5813 5810 5808 5805 5803 5800 5797 5794 5790 5786 5782 5777 5773 5768 5763 5759 5754 5750 5745 5741 5737 5737 5733 5726 5721 5718 5714 5711 5707 5705 5702 5700 5697 5694 5693 5690 5686 5684 5680 5677 5675 5673 5671 5666 5662
5814 5812 5810 5808 5805 5802 5800 5797 5793 5790 5785 5781 5777 5772 5767 5762 5757 5753 5748 5743 5738 5733 5727 5727 5722 5717 5713 5710 5706 5703 5699 5696 5694 5692 5688 5685 5684 5682 5678 5676 5673 5670 5667 5666 5663 5661 5657
5811 5810 5807 5805 5802 5799 5796 5793 5789 5785 5781 5777 5771 5766 5761 5755 5752 5745 5741 5735 5730 5725 5719 5717 5712 5710 5706 5702 5699 5695 5691 5690 5686 5683 5679 5677 5675 5672 5670 5668 5664 5662 5661 5659 5657 5654 5653
5809 5807 5805 5803 5799 5796 5793 5789 5785 5780 5776 5770 5764 5758 5753 5748 5744 5739 5735 5729 5723 5717 5711 5710 5704 5698 5695 5692 5688 5685 5682 5678 5675 5672 5671 5670 5665 5663 5661 5660 5657 5656 5654 5653 5651 5648 5647
5806 5805 5802 5799 5796 5792 5788 5784 5780 5775 5770 5765 5758 5752 5747 5742 5737 5732 5727 5722 5716 5711 5702 5699 5695 5689 5683 5679 5675 5672 5669 5666 5663 5660 5658 5658 5655 5655 5652 5651 5650 5648 5647 5646 5644 5643 5642
5803 5800 5798 5795 5791 5787 5783 5778 5775 5770 5765 5758 5752 5747 5742 5737 5732 5727 5721 5715 5710 5702 5694 5689 5683 5678 5672 5667 5663 5660 5657 5654 5650 5646 5648 5646 5645 5645 5644 5643 5642 5641 5640 5638 5637 5636 5636
5799 5796 5793 5790 5786 5781 5777 5773 5768 5763 5757 5751 5746 5741 5735 5729 5724 5718 5711 5706 5698 5690 5683 5676 5670 5665 5659 5655 5650 5648 5645 5642 5639 5637 5635 5635 5635 5634 5634 5634 5633 5632 5632 5632 5628 5629 5629
5793 5790 5787 5783 5779 5776 5771 5766 5761 5755 5750 5744 5740 5734 5728 5722 5716 5709 5701 5694 5686 5679 5672 5665 5659 5651 5645 5643 5641 5637 5633 5632 5631 5629 5628 5624 5624 5623 5625 5624 5624 5623 5623 5624 5622 5622 5622
5787 5784 5780 5776 5773 5768 5763 5758 5753 5747 5742 5736 5732 5727 5721 5714 5706 5698 5691 5683 5674 5666 5658 5650 5644 5641 5636 5631 5631 5626 5624 5622 5620 5619 5617 5615 5613 5614 5614 5615 5616 5615 5616 5617 5616 5615 5615
5780 5777 5773 5768 5765 5760 5755 5750 5744 5738 5732 5728 5723 5717 5710 5704 5696 5689 5679 5672 5664 5655 5648 5641 5633 5628 5625 5621 5620 5617 5613 5613 5612 5609 5607 5605 5604 5607 5606 5607 5605 5607 5607 5608 5608 5609 5608
5773 5769 5766 5761 5756 5751 5747 5742 5736 5730 5723 5717 5712 5706 5699 5692 5685 5676 5668 5660 5652 5643 5637 5629 5623 5618 5615 5612 5610 5606 5604 5603 5601 5599 5597 5595 5593 5594 5597 5599 5597 5598 5599 5599 5598 5602 5600
5765 5761 5757 5753 5748 5743 5737 5732 5727 5722 5715 5708 5701 5695 5688 5679 5672 5664 5656 5648 5640 5633 5627 5620 5614 5610 5606 5603 5600 5597 5595 5594 5591 5589 5587 5586 5584 5584 5586 5589 5589 5589 5590 5591 5590 5589 5592
5758 5753 5748 5743 5738 5734 5728 5723 5717 5711 5705 5698 5691 5683 5677 5667 5657 5651 5643 5636 5628 5621 5616 5611 5606 5601 5597 5594 5590 5587 5585 5583 5582 5579 5577 5574 5576 5575 5576 5578 5577 5578 5580 5580 5579 5580 5580
5749 5744 5740 5735 5730 5724 5718 5712 5706 5700 5693 5686 5678 5672 5663 5655 5648 5640 5631 5623 5616 5611 5605 5600 5597 5594 5589 5586 5582 5579 5577 5574 5572 5568 5567 5565 5564 5564 5565 5565 5565 5565 5567 5570 5568 5572 5562
5740 5735 5730 5725 5720 5714 5709 5701 5693 5689 5681 5674 5666 5659 5651 5641 5633 5625 5617 5612 5606 5600 5596 5590 5586 5583 5578 5576 5572 5569 5565 5563 5562 5562 5556 5554 5552 5551 5552 5552 5551 5552 5554 5554 5558 5559 5552
5729 5724 5719 5713 5708 5703 5698 5693 5687 5677 5669 5660 5652 5646 5637 5628 5619 5612 5606 5598 5594 5589 5586 5581 5576 5573 5569 5565 5561 5558 5554 5551 5548 5546 5545 5543 5541 5536 5536 5537 5537 5540 5538 5539 5541 5543 5542
5718 5713 5708 5703 5697 5691 5685 5679 5673 5667 5660 5650 5642 5634 5625 5614 5605 5599 5595 5590 5583 5578 5574 5570 5562 5559 5556 5552 5547 5543 5540 5537 5533 5530 5526 5525 5522 5520 5521 5517 5519 5524 5523 5522 5521 5522 5520
5708 5703 5697 5692 5685 5679 5672 5665 5658 5651 5645 5637 5630 5621 5614 5606 5596 5588 5581 5577 5570 5563 5561 5557 5550 5542 5539 5535 5531 5526 5523 5517 5513 5511 5509 5505 5500 5500 5501 5498 5504 5515 5505 5501 5496 5500 5498
5698 5691 5685 5680 5673 5665 5658 5651 5643 5636 5629 5621 5614 5608 5601 5595 5585 5577 5568 5561 5553 5550 5547 5540 5533 5527 5522 5516 5510 5504 5501 5496 5494 5492 5489 5487 5484 5482 5483 5479 5478 5491 5481 5476 5477 5480 5477
5685 5679 5674 5668 5661 5653 5645 5636 5628 5621 5614 5606 5598 5594 5588 5582 5574 5562 5554 5544 5535 5531 5525 5520 5513 5509 5501 5495 5489 5485 5484 5477 5478 5476 5473 5463 5460 5458 5457 5454 5457 5466 5462 5454 5453 5462 5448
5674 5669 5662 5655 5647 5639 5631 5623 5615 5606 5599 5591 5583 5577 5571 5567 5562 5547 5538 5525 5517 5511 5505 5500 5493 5485 5477 5474 5471 5467 5464 5460 5456 5457 5450 5448 5443 5445 5442 5437 5438 5442 5437 5436 5435 5431 5432
5663 5657 5649 5641 5633 5626 5618 5609 5601 5591 5583 5576 5568 5561 5556 5550 5546 5533 5524 5507 5494 5488 5486 5478 5472 5466 5458 5454 5453 5447 5445 5442 5438 5437 5436 5431 5429 5430 5426 5424 5424 5426 5420 5420 5416 5417 5424